Wind_Speed
7 5 3 6 13 15 16 15 13 13 20 27 27 22 21 26 30 31 32 34 36 37 37 37 36 37 37 37 38 38 37 38 38 38 37 35 34 33 32 30 29 28 26 25
4 4 10 12 13 12 11 13 13 15 20 24 25 25 24 26 29 31 32 34 37 38 36 38 39 37 38 39 39 38 38 38 38 38 37 36 34 33 32 30 29 27 26 24
3 7 11 8 6 4 6 9 13 17 20 21 21 20 19 22 27 29 31 33 33 34 36 38 38 37 37 37 36 35 37 38 38 38 38 36 34 34 33 30 29 27 26 25
4 8 8 4 5 6 8 11 15 17 18 18 16 19 19 23 27 31 29 30 29 29 29 32 34 34 34 36 36 36 38 39 40 39 38 35 35 34 32 30 28 27 26 26
4 6 8 7 8 10 10 13 14 12 13 14 13 18 19 24 30 31 28 27 32 29 29 31 32 33 35 36 36 37 38 37 37 37 37 36 35 33 31 30 29 28 28 27
3 7 7 7 9 10 10 9 8 11 16 18 20 20 21 24 27 29 28 31 34 33 31 32 31 32 33 34 36 36 36 36 37 38 37 37 35 34 34 33 32 30 30 30
2 6 6 7 8 10 10 9 10 16 21 22 17 14 18 22 24 26 30 31 32 32 32 32 32 33 33 34 36 37 37 39 40 40 40 40 38 38 37 36 35 34 33 33
7 7 4 8 10 11 10 8 11 17 18 22 24 18 18 21 24 25 26 28 30 31 32 32 33 34 36 37 39 40 41 42 43 43 43 43 43 42 41 40 39 39 38 37
7 7 8 11 11 9 10 8 10 15 15 14 16 25 29 27 26 25 25 28 32 34 35 36 37 39 40 41 42 43 45 46 47 48 48 48 48 47 46 45 44 44 42 42
7 8 7 9 9 10 12 13 13 14 16 16 15 26 34 33 31 30 31 34 36 37 39 40 41 42 44 45 47 48 50 51 51 52 53 53 53 53 52 51 49 48 47 46
8 8 6 9 12 12 13 13 15 17 18 20 21 27 32 34 34 36 39 40 40 40 43 44 45 46 48 49 50 52 53 54 55 55 56 57 57 57 57 57 55 54 53 52
9 9 8 8 12 13 13 15 18 19 20 21 23 29 32 34 37 39 41 44 45 46 48 50 51 51 52 53 54 55 56 57 58 59 59 60 60 61 61 61 60 59 58 57
11 11 10 10 14 17 18 18 20 22 25 25 26 32 34 37 40 42 44 46 49 51 52 53 54 55 55 56 57 58 59 60 61 62 63 64 65 65 66 66 65 64 63 62
12 12 12 12 12 14 18 19 21 24 27 28 30 35 39 41 42 45 48 50 52 54 56 56 57 58 59 60 61 62 63 64 65 66 67 68 69 70 70 70 70 69 69 68
12 12 13 13 13 14 17 19 21 24 27 30 34 38 42 43 45 48 51 53 56 58 59 60 61 63 64 64 65 67 67 68 69 70 71 72 73 73 74 74 75 74 74 73
13 13 14 14 14 15 19 22 23 27 31 34 37 40 44 46 49 51 53 56 60 62 63 64 66 67 67 68 69 69 69 70 70 70 70 70 70 71 72 73 74 75 75 75
14 16 16 16 16 18 22 24 26 30 35 38 40 43 46 48 51 54 57 60 63 65 66 67 68 69 70 69 68 67 66 64 62 61 59 58 58 59 59 61 63 65 67 69
14 16 19 20 21 21 24 26 29 33 37 41 42 45 48 51 54 56 60 64 66 67 68 69 69 69 67 65 62 60 57 54 51 48 45 43 43 44 45 47 49 52 54 57
18 20 21 23 22 26 30 30 34 37 41 43 45 49 52 55 58 59 62 65 66 66 67 67 66 63 60 57 53 50 46 43 39 36 35 35 35 35 35 36 38 40 42 45
22 24 25 26 27 30 33 36 38 42 46 49 52 55 57 60 62 63 65 65 65 65 65 63 59 55 51 47 44 41 39 36 34 33 33 32 31 30 29 30 30 31 32 33
22 24 26 27 29 35 36 39 42 44 47 50 52 55 59 62 64 66 65 65 65 64 61 57 53 48 44 42 40 37 35 33 33 33 32 30 30 29 28 27 27 28 28 28
22 25 27 30 32 37 39 42 44 47 50 53 56 59 62 64 65 66 65 64 63 60 56 51 47 44 41 39 38 37 35 34 34 33 31 30 30 30 29 28 27 27 27 26
23 26 29 32 35 38 42 45 48 51 54 57 60 62 64 65 66 65 63 61 58 54 50 46 44 42 40 39 39 39 38 37 36 35 34 33 32 30 29 29 28 27 26 25
28 28 31 34 38 41 45 48 51 53 56 59 62 64 65 66 66 64 60 57 53 49 46 45 43 42 40 40 41 40 40 39 39 38 37 36 34 32 30 29 28 26 25 23
28 31 34 38 41 44 46 50 53 55 58 61 63 63 65 66 65 61 57 54 51 48 46 45 44 43 43 42 42 42 42 41 41 40 39 37 35 33 30 28 26 25 23 22
30 34 37 40 43 46 49 52 55 57 60 62 63 64 65 65 62 58 55 52 50 48 48 47 45 45 45 44 44 43 42 41 40 38 37 35 34 31 28 26 24 23 23 21
Wind_Direction
299 300 319 255 253 250 238 225 224 231 239 250 254 253 246 254 259 263 265 269 271 272 272 274 275 280 281 282 285 285 286 289 291 292 295 296 297 297 298 296 293 291 289 287
338 287 265 264 257 253 249 238 231 239 252 260 262 262 256 255 261 266 268 271 273 277 275 276 279 277 280 281 281 281 283 287 287 289 291 292 294 295 295 294 291 287 284 283
269 263 287 309 313 290 264 256 242 242 249 259 271 278 277 269 270 270 270 272 274 275 274 275 275 276 278 277 276 277 283 286 286 287 288 289 291 292 292 290 288 286 283 281
239 284 305 306 286 278 264 250 254 257 260 265 268 272 273 269 265 267 266 269 278 280 279 280 279 276 275 276 277 280 282 283 285 285 286 287 289 290 289 287 285 282 280 279
266 291 303 291 276 277 270 261 264 267 269 267 261 263 263 260 262 267 273 279 292 291 290 287 281 279 278 278 280 281 280 281 284 286 286 286 286 288 287 286 285 282 279 278
321 305 305 298 290 296 295 289 278 283 276 262 250 245 252 259 272 279 284 289 295 296 293 289 285 282 281 282 282 281 281 282 283 284 285 285 286 286 286 286 284 281 279 278
277 267 272 310 317 297 292 295 294 298 305 306 295 260 251 262 276 284 290 295 297 296 294 291 287 286 284 284 284 283 281 284 284 283 283 284 285 285 284 283 284 282 279 278
301 296 315 307 305 302 302 299 301 302 308 317 322 307 277 266 269 278 287 295 300 299 297 294 292 289 287 286 285 283 282 284 284 284 284 284 284 283 281 281 280 279 278 277
288 310 301 302 313 318 318 308 290 296 304 306 304 297 291 285 281 276 284 295 301 300 298 295 293 291 289 287 285 284 283 283 283 282 282 281 281 281 280 279 278 276 275 274
283 279 277 301 316 311 312 320 316 309 305 301 299 296 297 301 301 302 300 302 301 299 296 294 292 290 289 287 285 284 283 282 281 281 280 280 280 279 278 277 276 274 272 271
293 293 293 295 292 294 298 305 300 301 303 300 297 294 294 301 302 301 301 302 301 298 296 294 292 290 288 286 285 284 283 282 280 279 278 278 277 277 276 276 275 273 271 269
303 308 310 302 297 293 296 313 316 313 309 304 303 294 296 296 295 295 297 299 298 296 294 294 293 291 290 288 286 285 283 282 281 279 278 277 276 275 275 274 273 272 271 269
313 315 312 307 308 315 323 321 313 308 307 307 303 295 294 294 296 297 297 297 297 296 295 294 294 293 292 290 288 286 284 282 281 279 277 276 275 273 273 272 271 271 270 268
313 314 312 311 305 304 305 304 300 299 300 300 298 294 296 298 299 299 299 299 299 298 298 297 296 295 293 291 289 288 285 283 282 280 278 277 275 273 272 271 270 269 268 267
318 317 315 314 312 304 297 298 301 300 299 299 300 298 300 302 302 301 301 301 301 300 300 300 299 297 295 293 291 289 287 285 283 281 279 277 275 274 272 271 269 268 267 266
321 320 318 317 314 309 302 304 307 304 303 303 304 304 305 305 304 305 305 304 303 303 302 301 300 298 297 295 293 292 290 288 286 284 282 280 278 275 273 271 269 268 267 266
324 326 326 324 321 313 304 312 309 307 307 308 310 309 308 307 307 308 308 306 306 305 304 304 302 301 299 298 297 295 294 292 291 289 286 284 281 278 276 274 272 270 267 265
329 329 328 328 328 316 315 318 314 312 311 312 313 311 310 311 311 312 310 309 309 309 308 306 304 302 301 300 299 298 298 297 295 293 291 289 287 285 282 278 275 272 269 267
333 332 331 331 330 318 322 324 319 318 316 317 316 315 315 315 314 315 313 312 311 310 308 306 305 304 304 304 303 301 301 300 298 296 295 295 294 292 289 285 281 278 274 271
333 332 333 333 329 321 327 324 324 323 321 323 321 320 319 318 317 317 316 314 313 312 311 309 308 308 308 307 306 305 304 301 299 298 298 298 297 297 296 292 288 284 280 276
327 329 331 331 328 323 329 326 326 324 322 321 320 319 319 319 319 319 319 318 316 315 313 312 311 311 310 308 307 306 304 302 300 299 298 297 296 296 296 294 292 288 284 279
330 331 331 332 330 327 328 325 325 324 324 323 323 323 322 323 323 322 321 320 319 317 316 314 313 312 311 309 307 305 303 301 300 299 298 297 295 294 293 292 290 289 285 280
331 332 330 330 328 327 327 327 327 327 326 326 326 326 325 325 325 324 323 322 320 320 318 316 314 313 310 308 306 305 302 300 298 297 296 294 294 293 290 288 287 286 284 279
328 330 328 328 329 330 329 328 327 328 328 328 328 328 328 327 327 326 325 323 323 321 319 317 315 313 310 307 305 303 301 299 296 295 293 292 291 289 288 286 283 282 280 275
324 326 328 330 330 330 328 328 328 329 329 330 330 330 330 329 328 328 326 325 324 322 320 317 315 313 311 308 305 303 301 298 295 293 292 290 289 287 284 281 279 276 274 270
327 328 329 329 329 329 329 329 330 331 331 332 332 332 332 331 330 329 327 326 325 322 320 318 316 313 311 309 307 305 302 298 295 293 291 289 287 283 278 275 274 271 268 263
Height
5873 5875 5876 5878 5877 5877 5878 5880 5883 5886 5882 5880 5880 5881 5882 5880 5878 5877 5876 5873 5871 5867 5864 5862 5859 5857 5858 5857 5856 5856 5855 5855 5855 5854 5852 5851 5850 5849 5847 5845 5844 5842 5840 5839
5874 5873 5873 5872 5872 5872 5874 5876 5878 5879 5877 5875 5875 5875 5875 5874 5873 5872 5870 5867 5864 5859 5857 5856 5855 5852 5851 5849 5848 5848 5849 5849 5847 5846 5845 5844 5842 5842 5840 5839 5837 5836 5834 5833
5873 5872 5870 5870 5871 5872 5873 5873 5874 5873 5871 5870 5870 5870 5869 5868 5866 5865 5862 5859 5855 5852 5850 5847 5848 5846 5845 5843 5839 5838 5842 5841 5838 5838 5837 5836 5835 5834 5833 5832 5831 5830 5828 5827
5871 5870 5869 5869 5869 5869 5869 5867 5867 5866 5866 5866 5867 5866 5865 5863 5859 5854 5850 5849 5847 5843 5840 5841 5839 5839 5838 5837 5834 5835 5835 5834 5832 5831 5829 5829 5828 5827 5826 5825 5824 5823 5822 5821
5868 5869 5868 5868 5867 5866 5865 5863 5863 5862 5861 5861 5862 5862 5861 5855 5852 5847 5846 5844 5842 5838 5838 5837 5834 5833 5831 5830 5830 5829 5827 5826 5824 5823 5821 5821 5820 5819 5819 5818 5817 5815 5815 5814
5867 5867 5866 5866 5865 5863 5862 5861 5860 5859 5857 5855 5855 5854 5853 5849 5848 5844 5842 5842 5839 5837 5836 5832 5829 5828 5826 5824 5823 5821 5819 5817 5816 5815 5814 5813 5812 5811 5810 5809 5808 5808 5807 5807
5865 5865 5864 5864 5864 5862 5860 5859 5858 5855 5851 5847 5845 5845 5846 5844 5843 5841 5838 5836 5834 5833 5830 5828 5824 5821 5819 5817 5815 5813 5810 5809 5808 5806 5805 5804 5803 5802 5801 5801 5800 5799 5798 5798
5862 5861 5862 5863 5862 5860 5859 5858 5857 5854 5851 5849 5843 5841 5840 5838 5837 5837 5835 5833 5830 5827 5825 5822 5819 5816 5813 5811 5808 5805 5802 5800 5798 5797 5795 5794 5793 5792 5791 5791 5790 5789 5789 5788
5862 5862 5862 5862 5860 5859 5857 5856 5855 5852 5850 5850 5848 5840 5836 5832 5829 5829 5830 5828 5825 5821 5818 5815 5812 5808 5805 5802 5799 5796 5793 5791 5788 5785 5783 5782 5781 5780 5779 5779 5778 5778 5778 5778
5863 5862 5862 5860 5860 5858 5857 5855 5853 5851 5848 5846 5846 5840 5833 5828 5826 5823 5822 5821 5818 5814 5810 5806 5803 5799 5796 5792 5788 5785 5782 5779 5776 5773 5771 5768 5767 5766 5765 5765 5765 5765 5765 5765
5861 5860 5860 5859 5856 5856 5854 5853 5851 5849 5846 5843 5841 5838 5830 5827 5823 5819 5815 5812 5809 5805 5800 5796 5792 5788 5784 5780 5776 5772 5768 5765 5762 5759 5757 5754 5752 5751 5750 5749 5749 5749 5750 5750
5859 5859 5857 5856 5854 5852 5850 5849 5848 5845 5843 5840 5837 5835 5827 5823 5818 5813 5808 5804 5800 5795 5790 5785 5780 5775 5771 5766 5762 5758 5754 5750 5746 5743 5740 5738 5736 5734 5733 5732 5731 5732 5733 5733
5858 5857 5856 5855 5854 5849 5847 5846 5844 5841 5838 5835 5832 5828 5821 5816 5812 5806 5801 5796 5790 5783 5778 5772 5767 5762 5756 5751 5746 5741 5737 5733 5729 5725 5722 5720 5717 5715 5714 5713 5712 5712 5713 5715
5855 5854 5853 5852 5850 5848 5846 5844 5841 5838 5834 5830 5827 5819 5813 5809 5804 5798 5791 5785 5778 5771 5765 5759 5752 5746 5741 5735 5729 5723 5718 5713 5709 5705 5702 5699 5696 5694 5693 5692 5691 5692 5692 5694
5853 5852 5850 5848 5846 5844 5842 5840 5837 5833 5829 5825 5819 5812 5806 5800 5795 5788 5781 5773 5765 5758 5751 5744 5737 5729 5723 5716 5709 5703 5697 5691 5686 5682 5678 5675 5672 5670 5668 5667 5667 5668 5669 5671
5850 5849 5847 5845 5842 5840 5838 5835 5832 5827 5822 5817 5812 5805 5798 5791 5784 5777 5769 5761 5752 5744 5736 5727 5719 5710 5703 5695 5688 5681 5674 5667 5662 5657 5653 5649 5646 5644 5642 5641 5641 5642 5643 5645
5848 5846 5844 5841 5839 5836 5833 5830 5826 5821 5815 5809 5803 5797 5789 5782 5774 5766 5757 5746 5737 5728 5718 5708 5699 5689 5681 5672 5664 5657 5650 5644 5638 5633 5629 5625 5622 5620 5618 5616 5616 5616 5617 5619
5846 5843 5840 5837 5835 5831 5830 5824 5819 5814 5807 5801 5795 5787 5779 5771 5762 5754 5743 5731 5721 5710 5699 5689 5678 5668 5659 5651 5642 5635 5629 5623 5618 5614 5610 5606 5603 5601 5599 5597 5596 5595 5595 5597
5842 5840 5836 5833 5830 5825 5821 5817 5811 5806 5798 5792 5785 5776 5768 5758 5749 5741 5728 5716 5704 5693 5681 5670 5659 5649 5640 5632 5624 5618 5613 5608 5603 5600 5596 5593 5590 5587 5585 5583 5581 5579 5579 5579
5839 5836 5833 5829 5825 5820 5817 5810 5803 5798 5789 5780 5771 5763 5754 5744 5734 5726 5713 5700 5687 5675 5663 5651 5641 5632 5625 5617 5611 5605 5600 5596 5592 5589 5586 5583 5580 5577 5574 5572 5570 5568 5566 5566
5837 5833 5829 5826 5821 5814 5810 5802 5797 5791 5784 5774 5764 5754 5743 5732 5720 5708 5696 5683 5670 5657 5645 5635 5626 5618 5612 5605 5599 5594 5590 5586 5582 5579 5576 5573 5570 5568 5565 5563 5561 5559 5557 5556
5834 5830 5825 5821 5816 5811 5804 5796 5790 5783 5773 5763 5753 5742 5730 5718 5705 5692 5679 5666 5653 5642 5631 5621 5613 5607 5601 5595 5589 5585 5581 5577 5573 5569 5566 5564 5561 5558 5556 5555 5553 5551 5549 5548
5830 5826 5821 5817 5813 5805 5797 5789 5781 5772 5762 5752 5741 5729 5716 5703 5691 5677 5664 5652 5640 5629 5619 5610 5603 5596 5590 5584 5579 5574 5570 5565 5562 5559 5556 5553 5551 5549 5547 5545 5544 5542 5541 5540
5824 5822 5817 5811 5805 5798 5790 5781 5773 5763 5753 5741 5729 5716 5703 5690 5677 5664 5651 5639 5628 5618 5609 5600 5592 5586 5579 5574 5568 5563 5558 5553 5549 5547 5544 5542 5540 5538 5537 5535 5534 5533 5533 5532
5822 5817 5811 5805 5798 5791 5784 5774 5764 5754 5743 5731 5718 5705 5692 5678 5665 5651 5639 5628 5617 5608 5599 5590 5582 5575 5568 5562 5556 5550 5545 5540 5536 5533 5531 5529 5528 5527 5526 5525 5525 5525 5525 5525
5816 5811 5805 5799 5792 5784 5776 5766 5755 5744 5733 5721 5708 5695 5681 5666 5653 5640 5629 5617 5607 5597 5588 5579 5571 5563 5556 5549 5542 5536 5531 5526 5522 5519 5517 5516 5515 5514 5514 5515 5516 5516 5517 5518